Location: Fazenda Monte Alegre
(4.8500°S, 38.0333°W)
Time: 14:21:43
(UTC+00:00)

OAO 3 Copernicus - Pass Details

Date: 24 September 2020
Orbit: 694 x 705 km, 35.0° (Epoch: 19 October)

Event Time Altitude Azimuth Distance (km) Brightness Sun altitude
Rises 21:01:58 0° 313° (NW) 3,054 8.4 -9.4°
Reaches altitude 10° 21:04:23 10° 316° (NW) 2,141 7.5 -10.0°
Maximum altitude 21:09:21 65° 37° (NE) 764 4.3 -11.3°
Enters shadow 21:13:49 13° 118° (ESE) 1,952 6.1 -12.4°
